Time,TemperatureF,DewpointF,PressureIn,WindDirection,WindDirectionDegrees,WindSpeedMPH,WindSpeedGustMPH,Humidity,HourlyPrecipIn,Conditions,Clouds,dailyrainin,SoftwareType,DateUTC
2013-06-16 00:01:00,75.4,70.7,29.94,East,90,2.0,2.2,85,0.00,,,0.00,WUHU216HW,2013-06-16 05:01:00,
2013-06-16 00:06:00,75.4,71.0,29.94,East,90,1.6,2.7,86,0.00,,,0.00,WUHU216HW,2013-06-16 05:06:00,
2013-06-16 00:11:00,75.2,70.8,29.94,ESE,113,2.0,2.7,86,0.00,,,0.00,WUHU216HW,2013-06-16 05:11:00,
2013-06-16 00:16:00,75.2,70.8,29.94,ESE,113,2.0,2.7,86,0.00,,,0.00,WUHU216HW,2013-06-16 05:16:00,
2013-06-16 00:21:00,75.2,70.8,29.94,ESE,113,3.1,3.1,86,0.00,,,0.00,WUHU216HW,2013-06-16 05:21:00,
2013-06-16 00:26:00,75.2,70.8,29.94,ESE,113,2.7,3.1,86,0.00,,,0.00,WUHU216HW,2013-06-16 05:26:00,
2013-06-16 00:31:00,75.2,70.8,29.94,ESE,113,2.9,3.1,86,0.00,,,0.00,WUHU216HW,2013-06-16 05:31:00,
2013-06-16 00:36:00,75.2,70.5,29.94,ESE,113,2.2,2.9,85,0.00,,,0.00,WUHU216HW,2013-06-16 05:36:00,
2013-06-16 00:41:00,75.2,70.5,29.93,ESE,113,1.1,2.7,85,0.00,,,0.00,WUHU216HW,2013-06-16 05:41:00,
2013-06-16 00:46:00,75.2,70.8,29.93,ESE,113,2.5,2.5,86,0.00,,,0.00,WUHU216HW,2013-06-16 05:46:00,
2013-06-16 00:51:00,75.2,70.8,29.94,ESE,113,1.6,2.9,86,0.00,,,0.00,WUHU216HW,2013-06-16 05:51:00,
2013-06-16 00:56:00,75.2,70.8,29.93,ESE,113,2.0,2.9,86,0.00,,,0.00,WUHU216HW,2013-06-16 05:56:00,
2013-06-16 01:01:00,75.2,70.8,29.94,ESE,113,1.3,2.7,86,0.00,,,0.00,WUHU216HW,2013-06-16 06:01:00,
2013-06-16 01:06:00,75.4,70.7,29.93,East,90,1.1,2.2,85,0.00,,,0.00,WUHU216HW,2013-06-16 06:06:00,
2013-06-16 01:11:00,75.4,70.7,29.93,East,90,0.7,1.8,85,0.00,,,0.00,WUHU216HW,2013-06-16 06:11:00,
2013-06-16 01:16:00,75.4,71.0,29.94,ENE,68,0.4,1.3,86,0.00,,,0.00,WUHU216HW,2013-06-16 06:16:00,
2013-06-16 01:21:00,75.4,70.7,29.93,East,90,0.7,1.1,85,0.00,,,0.00,WUHU216HW,2013-06-16 06:21:00,
2013-06-16 01:26:00,75.4,70.7,29.93,ESE,113,0.7,1.1,85,0.00,,,0.00,WUHU216HW,2013-06-16 06:26:00,
2013-06-16 01:31:00,75.6,70.8,29.93,ESE,113,0.0,1.1,85,0.00,,,0.00,WUHU216HW,2013-06-16 06:31:00,
2013-06-16 01:36:00,75.6,70.8,29.92,ESE,113,0.4,0.7,85,0.00,,,0.00,WUHU216HW,2013-06-16 06:36:00,
2013-06-16 01:41:00,75.6,70.8,29.92,SE,135,1.6,1.6,85,0.00,,,0.00,WUHU216HW,2013-06-16 06:41:00,
2013-06-16 01:46:00,75.6,70.8,29.92,SE,135,1.8,1.8,85,0.00,,,0.00,WUHU216HW,2013-06-16 06:46:00,
2013-06-16 01:51:00,75.4,70.7,29.92,SE,135,2.9,2.9,85,0.00,,,0.00,WUHU216HW,2013-06-16 06:51:00,
2013-06-16 01:56:00,75.2,70.5,29.92,SE,135,2.5,2.9,85,0.00,,,0.00,WUHU216HW,2013-06-16 06:56:00,
2013-06-16 02:01:00,75.2,70.5,29.91,SE,135,2.5,2.9,85,0.00,,,0.00,WUHU216HW,2013-06-16 07:01:00,
2013-06-16 02:06:00,75.2,70.8,29.91,ESE,113,3.1,4.3,86,0.00,,,0.00,WUHU216HW,2013-06-16 07:06:00,
2013-06-16 02:11:00,75.2,70.8,29.91,ESE,113,4.0,4.3,86,0.00,,,0.00,WUHU216HW,2013-06-16 07:11:00,
2013-06-16 02:16:00,75.1,70.7,29.91,ESE,113,2.7,4.0,86,0.00,,,0.00,WUHU216HW,2013-06-16 07:16:00,
2013-06-16 02:21:00,75.2,70.8,29.91,SE,135,4.3,4.7,86,0.00,,,0.00,WUHU216HW,2013-06-16 07:21:00,
2013-06-16 02:26:00,75.1,70.7,29.91,SSE,158,2.9,4.7,86,0.00,,,0.00,WUHU216HW,2013-06-16 07:26:00,
2013-06-16 02:31:00,75.1,70.7,29.91,ESE,113,4.0,4.3,86,0.00,,,0.00,WUHU216HW,2013-06-16 07:31:00,
2013-06-16 02:36:00,75.1,71.0,29.91,SE,135,3.1,4.3,87,0.00,,,0.00,WUHU216HW,2013-06-16 07:36:00,
2013-06-16 02:41:00,75.1,71.0,29.91,South,180,2.7,4.3,87,0.00,,,0.00,WUHU216HW,2013-06-16 07:41:00,
2013-06-16 02:46:00,75.2,71.2,29.91,SSE,158,3.1,4.0,87,0.00,,,0.00,WUHU216HW,2013-06-16 07:46:00,
2013-06-16 02:51:00,75.2,71.2,29.91,SSE,158,2.2,3.8,87,0.00,,,0.00,WUHU216HW,2013-06-16 07:51:00,
2013-06-16 02:56:00,75.2,71.2,29.90,SE,135,1.8,3.8,87,0.00,,,0.00,WUHU216HW,2013-06-16 07:56:00,
2013-06-16 03:01:00,75.2,71.2,29.91,South,180,2.0,3.6,87,0.00,,,0.00,WUHU216HW,2013-06-16 08:01:00,
2013-06-16 03:06:00,75.2,71.2,29.91,South,180,2.0,3.4,87,0.00,,,0.00,WUHU216HW,2013-06-16 08:06:00,
2013-06-16 03:11:00,75.2,71.2,29.91,SSE,158,1.3,2.9,87,0.00,,,0.00,WUHU216HW,2013-06-16 08:11:00,
2013-06-16 03:16:00,75.2,71.2,29.91,SE,135,1.1,2.0,87,0.00,,,0.00,WUHU216HW,2013-06-16 08:16:00,
2013-06-16 03:21:00,75.2,71.2,29.90,SE,135,1.1,1.8,87,0.00,,,0.00,WUHU216HW,2013-06-16 08:21:00,
2013-06-16 03:26:00,75.2,71.2,29.90,SE,135,0.7,1.8,87,0.00,,,0.00,WUHU216HW,2013-06-16 08:26:00,
2013-06-16 03:31:00,75.2,71.2,29.90,SE,135,0.9,1.6,87,0.00,,,0.00,WUHU216HW,2013-06-16 08:31:00,
2013-06-16 03:36:00,75.2,71.2,29.90,ESE,113,1.1,1.3,87,0.00,,,0.00,WUHU216HW,2013-06-16 08:36:00,
2013-06-16 03:41:00,75.2,71.2,29.91,East,90,0.9,1.3,87,0.00,,,0.00,WUHU216HW,2013-06-16 08:41:00,
2013-06-16 03:46:00,75.2,71.2,29.91,East,90,1.1,2.0,87,0.00,,,0.00,WUHU216HW,2013-06-16 08:46:00,
2013-06-16 03:51:00,75.2,71.2,29.91,ESE,113,1.3,2.0,87,0.00,,,0.00,WUHU216HW,2013-06-16 08:51:00,
2013-06-16 03:56:00,75.1,71.3,29.90,ESE,113,1.3,1.6,88,0.00,,,0.00,WUHU216HW,2013-06-16 08:56:00,
2013-06-16 04:01:00,74.9,70.8,29.91,SE,135,2.5,2.5,87,0.00,,,0.00,WUHU216HW,2013-06-16 09:01:00,
2013-06-16 04:06:00,74.9,71.1,29.90,ESE,113,2.2,2.9,88,0.00,,,0.00,WUHU216HW,2013-06-16 09:06:00,
2013-06-16 04:11:00,75.1,71.3,29.91,SE,135,1.3,2.9,88,0.00,,,0.00,WUHU216HW,2013-06-16 09:11:00,
2013-06-16 04:16:00,75.1,71.3,29.91,ESE,113,1.8,2.2,88,0.00,,,0.00,WUHU216HW,2013-06-16 09:16:00,
2013-06-16 04:21:00,75.1,71.3,29.91,SE,135,1.6,2.9,88,0.00,,,0.00,WUHU216HW,2013-06-16 09:21:00,
2013-06-16 04:27:00,75.2,71.5,29.91,SE,135,2.5,3.1,88,0.00,,,0.00,WUHU216HW,2013-06-16 09:27:00,
2013-06-16 04:32:00,75.2,71.5,29.91,ESE,113,1.8,3.1,88,0.00,,,0.00,WUHU216HW,2013-06-16 09:32:00,
2013-06-16 04:37:00,75.2,71.2,29.91,SE,135,2.5,2.7,87,0.00,,,0.00,WUHU216HW,2013-06-16 09:37:00,
2013-06-16 04:42:00,75.4,71.4,29.92,SE,135,1.1,2.7,87,0.00,,,0.00,WUHU216HW,2013-06-16 09:42:00,
2013-06-16 04:47:00,75.4,71.4,29.92,SE,135,0.2,2.5,87,0.00,,,0.00,WUHU216HW,2013-06-16 09:47:00,
2013-06-16 04:52:00,75.6,71.8,29.93,SE,135,0.9,1.6,88,0.00,,,0.00,WUHU216HW,2013-06-16 09:52:00,
2013-06-16 04:57:00,75.6,71.5,29.93,SE,135,1.8,2.0,87,0.00,,,0.00,WUHU216HW,2013-06-16 09:57:00,
2013-06-16 05:02:00,75.6,71.5,29.93,SE,135,1.1,2.0,87,0.00,,,0.00,WUHU216HW,2013-06-16 10:02:00,
2013-06-16 05:07:00,75.6,71.5,29.93,SE,135,0.9,1.8,87,0.00,,,0.00,WUHU216HW,2013-06-16 10:07:00,
2013-06-16 05:12:00,75.8,71.6,29.93,SE,135,0.9,1.6,87,0.00,,,0.00,WUHU216HW,2013-06-16 10:12:00,
2013-06-16 05:17:00,75.8,71.6,29.93,SE,135,1.1,1.1,87,0.00,,,0.00,WUHU216HW,2013-06-16 10:17:00,
2013-06-16 05:22:00,75.8,71.6,29.94,SE,135,0.0,1.1,87,0.00,,,0.00,WUHU216HW,2013-06-16 10:22:00,
2013-06-16 05:27:00,75.8,71.6,29.94,SE,135,0.0,0.9,87,0.00,,,0.00,WUHU216HW,2013-06-16 10:27:00,
2013-06-16 05:32:00,75.8,71.6,29.94,SE,135,0.0,0.4,87,0.00,,,0.00,WUHU216HW,2013-06-16 10:32:00,
2013-06-16 05:37:00,75.8,71.6,29.94,SE,135,1.1,1.1,87,0.00,,,0.00,WUHU216HW,2013-06-16 10:37:00,
2013-06-16 05:42:00,75.8,71.6,29.94,SE,135,0.7,1.1,87,0.00,,,0.00,WUHU216HW,2013-06-16 10:42:00,
2013-06-16 05:47:00,75.8,71.6,29.94,SE,135,1.3,2.2,87,0.00,,,0.00,WUHU216HW,2013-06-16 10:47:00,
2013-06-16 05:52:00,75.8,71.6,29.95,SE,135,1.1,2.2,87,0.00,,,0.00,WUHU216HW,2013-06-16 10:52:00,
2013-06-16 05:57:00,75.8,71.6,29.95,SE,135,0.4,2.0,87,0.00,,,0.00,WUHU216HW,2013-06-16 10:57:00,
2013-06-16 06:02:00,75.8,71.6,29.95,SSE,158,1.1,2.2,87,0.00,,,0.00,WUHU216HW,2013-06-16 11:02:00,
2013-06-16 06:07:00,75.8,71.6,29.96,SSW,203,1.1,2.2,87,0.00,,,0.00,WUHU216HW,2013-06-16 11:07:00,
2013-06-16 06:12:00,75.8,71.6,29.96,South,180,1.6,2.5,87,0.00,,,0.00,WUHU216HW,2013-06-16 11:12:00,
2013-06-16 06:17:00,75.8,71.6,29.96,SSE,158,2.2,2.5,87,0.00,,,0.00,WUHU216HW,2013-06-16 11:17:00,
2013-06-16 06:22:00,75.8,71.6,29.96,SSE,158,1.3,2.2,87,0.00,,,0.00,WUHU216HW,2013-06-16 11:22:00,
2013-06-16 06:27:00,75.8,71.6,29.96,SSE,158,1.3,1.8,87,0.00,,,0.00,WUHU216HW,2013-06-16 11:27:00,
2013-06-16 06:32:00,75.8,71.6,29.96,SSE,158,0.0,1.6,87,0.00,,,0.00,WUHU216HW,2013-06-16 11:32:00,
2013-06-16 06:37:00,75.8,72.0,29.96,SSE,158,0.9,1.3,88,0.00,,,0.00,WUHU216HW,2013-06-16 11:37:00,
2013-06-16 06:42:00,75.8,72.0,29.96,SE,135,1.3,1.6,88,0.00,,,0.00,WUHU216HW,2013-06-16 11:42:00,
2013-06-16 06:47:00,75.6,71.8,29.96,SE,135,0.7,1.6,88,0.00,,,0.00,WUHU216HW,2013-06-16 11:47:00,
2013-06-16 06:52:00,75.8,71.6,29.97,SE,135,1.1,1.3,87,0.00,,,0.00,WUHU216HW,2013-06-16 11:52:00,
2013-06-16 06:57:00,75.8,71.6,29.97,SE,135,1.1,2.0,87,0.00,,,0.00,WUHU216HW,2013-06-16 11:57:00,
2013-06-16 07:02:00,75.8,71.6,29.97,SSE,158,1.3,2.0,87,0.00,,,0.00,WUHU216HW,2013-06-16 12:02:00,
2013-06-16 07:07:00,76.0,71.8,29.97,SSE,158,1.6,2.2,87,0.00,,,0.00,WUHU216HW,2013-06-16 12:07:00,
2013-06-16 07:12:00,76.0,72.2,29.97,South,180,1.8,3.1,88,0.00,,,0.00,WUHU216HW,2013-06-16 12:12:00,
2013-06-16 07:17:00,76.0,71.8,29.97,SSE,158,2.0,3.1,87,0.00,,,0.00,WUHU216HW,2013-06-16 12:17:00,
2013-06-16 07:22:00,76.0,71.8,29.98,SSE,158,2.5,3.1,87,0.00,,,0.00,WUHU216HW,2013-06-16 12:22:00,
2013-06-16 07:27:00,76.0,71.8,29.98,South,180,2.5,3.1,87,0.00,,,0.00,WUHU216HW,2013-06-16 12:27:00,
2013-06-16 07:32:00,76.1,72.0,29.98,SSE,158,1.8,3.1,87,0.00,,,0.00,WUHU216HW,2013-06-16 12:32:00,
2013-06-16 07:37:00,76.3,72.2,29.98,SSE,158,4.5,4.5,87,0.00,,,0.00,WUHU216HW,2013-06-16 12:37:00,
2013-06-16 07:42:00,76.5,72.4,29.98,South,180,2.5,5.4,87,0.00,,,0.00,WUHU216HW,2013-06-16 12:42:00,
2013-06-16 07:47:00,76.5,72.4,29.99,SSW,203,4.0,5.4,87,0.00,,,0.00,WUHU216HW,2013-06-16 12:47:00,
2013-06-16 07:52:00,76.7,72.5,29.99,SSW,203,2.7,5.1,87,0.00,,,0.00,WUHU216HW,2013-06-16 12:52:00,
2013-06-16 07:57:00,76.9,72.7,29.99,South,180,4.7,5.8,87,0.00,,,0.00,WUHU216HW,2013-06-16 12:57:00,
2013-06-16 08:02:00,77.0,72.5,29.99,SSE,158,2.2,6.3,86,0.00,,,0.00,WUHU216HW,2013-06-16 13:02:00,
2013-06-16 08:07:00,77.4,72.9,29.99,South,180,3.4,6.3,86,0.00,,,0.00,WUHU216HW,2013-06-16 13:07:00,
2013-06-16 08:12:00,77.8,72.9,30.00,SSW,203,4.5,7.2,85,0.00,,,0.00,WUHU216HW,2013-06-16 13:12:00,
2013-06-16 08:17:00,78.1,72.9,29.99,South,180,6.7,7.6,84,0.00,,,0.00,WUHU216HW,2013-06-16 13:17:00,
2013-06-16 08:22:00,78.5,73.3,30.00,SW,225,4.9,7.6,84,0.00,,,0.00,WUHU216HW,2013-06-16 13:22:00,
2013-06-16 08:27:00,78.5,72.9,30.00,South,180,5.4,6.3,83,0.00,,,0.00,WUHU216HW,2013-06-16 13:27:00,
2013-06-16 08:32:00,78.7,73.1,29.99,South,180,4.5,8.7,83,0.00,,,0.00,WUHU216HW,2013-06-16 13:32:00,
2013-06-16 08:37:00,78.8,73.3,29.99,SSW,203,5.4,8.7,83,0.00,,,0.00,WUHU216HW,2013-06-16 13:37:00,
2013-06-16 08:42:00,79.0,73.1,29.99,SSW,203,4.7,6.7,82,0.00,,,0.00,WUHU216HW,2013-06-16 13:42:00,
2013-06-16 08:47:00,79.2,73.3,29.99,SW,225,5.4,7.8,82,0.00,,,0.00,WUHU216HW,2013-06-16 13:47:00,
2013-06-16 08:52:00,79.6,72.9,29.99,SW,225,6.3,9.6,80,0.00,,,0.00,WUHU216HW,2013-06-16 13:52:00,
2013-06-16 08:57:00,79.9,73.3,30.00,WSW,248,7.4,9.6,80,0.00,,,0.00,WUHU216HW,2013-06-16 13:57:00,
2013-06-16 09:02:00,80.1,73.1,30.00,SW,225,3.4,9.2,79,0.00,,,0.00,WUHU216HW,2013-06-16 14:02:00,
2013-06-16 09:07:00,80.3,73.6,30.00,SW,225,5.4,7.4,80,0.00,,,0.00,WUHU216HW,2013-06-16 14:07:00,
2013-06-16 09:12:00,80.6,74.0,30.00,SSW,203,4.7,7.2,80,0.00,,,0.00,WUHU216HW,2013-06-16 14:12:00,
2013-06-16 09:17:00,81.0,74.0,30.00,SSW,203,4.7,6.0,79,0.00,,,0.00,WUHU216HW,2013-06-16 14:17:00,
2013-06-16 09:22:00,81.4,74.4,30.00,SSW,203,4.0,6.3,79,0.00,,,0.00,WUHU216HW,2013-06-16 14:22:00,
2013-06-16 09:27:00,81.7,74.6,30.00,SSW,203,4.9,6.9,79,0.00,,,0.00,WUHU216HW,2013-06-16 14:27:00,
2013-06-16 09:32:00,81.5,74.4,30.00,SSW,203,6.0,8.3,79,0.00,,,0.00,WUHU216HW,2013-06-16 14:32:00,
2013-06-16 09:37:00,81.4,73.9,29.99,SSE,158,5.6,8.5,78,0.00,,,0.00,WUHU216HW,2013-06-16 14:37:00,
2013-06-16 09:42:00,81.4,73.9,29.99,SW,225,4.9,8.9,78,0.00,,,0.00,WUHU216HW,2013-06-16 14:42:00,
2013-06-16 09:47:00,81.7,74.6,29.99,SW,225,6.3,8.9,79,0.00,,,0.00,WUHU216HW,2013-06-16 14:47:00,
2013-06-16 09:52:00,81.9,74.8,29.99,SSW,203,5.1,7.8,79,0.00,,,0.00,WUHU216HW,2013-06-16 14:52:00,
2013-06-16 09:57:00,82.3,74.0,29.99,SSW,203,7.4,9.2,76,0.00,,,0.00,WUHU216HW,2013-06-16 14:57:00,
2013-06-16 10:02:00,82.4,74.2,29.99,WSW,248,5.1,9.4,76,0.00,,,0.00,WUHU216HW,2013-06-16 15:02:00,
2013-06-16 10:07:00,82.6,74.3,29.99,SSW,203,7.6,9.4,76,0.00,,,0.00,WUHU216HW,2013-06-16 15:07:00,
2013-06-16 10:12:00,82.6,74.3,29.99,SW,225,6.3,9.8,76,0.00,,,0.00,WUHU216HW,2013-06-16 15:12:00,
2013-06-16 10:17:00,83.0,74.3,29.99,SW,225,6.3,9.8,75,0.00,,,0.00,WUHU216HW,2013-06-16 15:17:00,
2013-06-16 10:22:00,83.2,73.2,29.99,SW,225,6.7,8.9,72,0.00,,,0.00,WUHU216HW,2013-06-16 15:22:00,
2013-06-16 10:27:00,83.5,73.5,29.99,SSW,203,5.8,11.0,72,0.00,,,0.00,WUHU216HW,2013-06-16 15:27:00,
2013-06-16 10:32:00,83.9,74.3,29.99,SW,225,9.4,11.0,73,0.00,,,0.00,WUHU216HW,2013-06-16 15:32:00,
2013-06-16 10:37:00,84.1,74.1,29.99,SW,225,5.4,10.5,72,0.00,,,0.00,WUHU216HW,2013-06-16 15:37:00,
2013-06-16 10:42:00,84.6,73.4,29.99,West,270,4.7,10.5,69,0.00,,,0.00,WUHU216HW,2013-06-16 15:42:00,
2013-06-16 10:47:00,84.6,72.9,29.99,SW,225,6.0,9.2,68,0.00,,,0.00,WUHU216HW,2013-06-16 15:47:00,
2013-06-16 10:52:00,84.2,73.0,29.99,SW,225,3.4,9.2,69,0.00,,,0.00,WUHU216HW,2013-06-16 15:52:00,
2013-06-16 10:57:00,84.2,73.0,29.99,WSW,248,4.7,8.1,69,0.00,,,0.00,WUHU216HW,2013-06-16 15:57:00,
2013-06-16 11:02:00,84.8,73.1,29.99,SW,225,6.9,7.2,68,0.00,,,0.00,WUHU216HW,2013-06-16 16:02:00,
2013-06-16 11:07:00,85.3,73.6,29.99,South,180,8.5,9.2,68,0.00,,,0.00,WUHU216HW,2013-06-16 16:07:00,
2013-06-16 11:12:00,85.7,73.0,29.99,SW,225,6.9,10.3,66,0.00,,,0.00,WUHU216HW,2013-06-16 16:12:00,
2013-06-16 11:17:00,85.5,73.4,29.99,South,180,3.4,10.3,67,0.00,,,0.00,WUHU216HW,2013-06-16 16:17:00,
2013-06-16 11:22:00,85.3,73.6,29.99,SW,225,4.9,7.6,68,0.00,,,0.00,WUHU216HW,2013-06-16 16:22:00,
2013-06-16 11:27:00,85.5,74.3,29.99,SSW,203,4.3,6.9,69,0.00,,,0.00,WUHU216HW,2013-06-16 16:27:00,
2013-06-16 11:32:00,86.0,74.4,29.99,SSE,158,5.6,6.9,68,0.00,,,0.00,WUHU216HW,2013-06-16 16:32:00,
2013-06-16 11:37:00,86.2,73.5,29.99,South,180,6.5,10.1,66,0.00,,,0.00,WUHU216HW,2013-06-16 16:37:00,
2013-06-16 11:42:00,86.6,73.9,29.99,SSW,203,4.7,10.1,66,0.00,,,0.00,WUHU216HW,2013-06-16 16:42:00,
2013-06-16 11:47:00,86.9,74.3,29.99,SSW,203,7.6,9.4,66,0.00,,,0.00,WUHU216HW,2013-06-16 16:47:00,
2013-06-16 11:52:00,87.5,74.7,29.98,SW,225,4.9,10.1,66,0.00,,,0.00,WUHU216HW,2013-06-16 16:52:00,
2013-06-16 11:57:00,87.7,74.4,29.98,SSW,203,8.5,10.1,65,0.00,,,0.00,WUHU216HW,2013-06-16 16:57:00,
2013-06-16 12:02:00,87.7,73.5,29.98,South,180,6.3,9.4,63,0.00,,,0.00,WUHU216HW,2013-06-16 17:02:00,
2013-06-16 12:07:00,87.8,74.2,29.98,South,180,8.5,9.4,64,0.00,,,0.00,WUHU216HW,2013-06-16 17:07:00,
2013-06-16 12:12:00,88.0,73.9,29.98,SSW,203,6.9,11.2,63,0.00,,,0.00,WUHU216HW,2013-06-16 17:12:00,
2013-06-16 12:17:00,88.4,74.3,29.98,SSW,203,5.4,11.2,63,0.00,,,0.00,WUHU216HW,2013-06-16 17:17:00,
2013-06-16 12:22:00,88.7,74.1,29.98,SW,225,5.4,8.9,62,0.00,,,0.00,WUHU216HW,2013-06-16 17:22:00,
2013-06-16 12:27:00,88.7,73.6,29.97,SSE,158,8.5,10.5,61,0.00,,,0.00,WUHU216HW,2013-06-16 17:27:00,
2013-06-16 12:32:00,88.9,73.8,29.97,South,180,6.3,10.5,61,0.00,,,0.00,WUHU216HW,2013-06-16 17:32:00,
2013-06-16 12:37:00,89.1,73.5,29.97,SW,225,3.4,8.5,60,0.00,,,0.00,WUHU216HW,2013-06-16 17:37:00,
2013-06-16 12:42:00,89.3,74.2,29.97,South,180,8.7,9.6,61,0.00,,,0.00,WUHU216HW,2013-06-16 17:42:00,
2013-06-16 12:47:00,89.5,74.8,29.97,SW,225,6.3,9.6,62,0.00,,,0.00,WUHU216HW,2013-06-16 17:47:00,
2013-06-16 12:52:00,89.8,74.2,29.96,WSW,248,4.3,10.5,60,0.00,,,0.00,WUHU216HW,2013-06-16 17:52:00,
2013-06-16 12:57:00,90.2,74.4,29.96,SSW,203,5.8,10.5,60,0.00,,,0.00,WUHU216HW,2013-06-16 17:57:00,
2013-06-16 13:02:00,90.2,73.9,29.96,SW,225,4.5,9.2,59,0.00,,,0.00,WUHU216HW,2013-06-16 18:02:00,
2013-06-16 13:07:00,90.0,74.4,29.96,SSW,203,8.1,9.2,60,0.00,,,0.00,WUHU216HW,2013-06-16 18:07:00,
2013-06-16 13:12:00,90.4,73.5,29.95,SSE,158,2.9,9.8,58,0.00,,,0.00,WUHU216HW,2013-06-16 18:12:00,
2013-06-16 13:17:00,90.5,74.3,29.95,SE,135,3.8,9.8,59,0.00,,,0.00,WUHU216HW,2013-06-16 18:17:00,
2013-06-16 13:22:00,90.7,74.4,29.95,SW,225,7.6,9.4,59,0.00,,,0.00,WUHU216HW,2013-06-16 18:22:00,
2013-06-16 13:27:00,90.7,74.4,29.95,SSW,203,4.9,8.5,59,0.00,,,0.00,WUHU216HW,2013-06-16 18:27:00,
2013-06-16 13:32:00,90.9,74.1,29.95,SSE,158,5.4,8.5,58,0.00,,,0.00,WUHU216HW,2013-06-16 18:32:00,
2013-06-16 13:37:00,91.1,74.7,29.95,South,180,5.1,7.8,59,0.00,,,0.00,WUHU216HW,2013-06-16 18:37:00,
2013-06-16 13:42:00,91.1,75.8,29.94,South,180,5.6,7.6,61,0.00,,,0.00,WUHU216HW,2013-06-16 18:42:00,
2013-06-16 13:47:00,91.1,75.2,29.94,South,180,6.0,7.2,60,0.00,,,0.00,WUHU216HW,2013-06-16 18:47:00,
2013-06-16 13:52:00,90.9,75.2,29.94,South,180,5.8,9.2,60,0.00,,,0.00,WUHU216HW,2013-06-16 18:52:00,
2013-06-16 13:57:00,91.1,75.2,29.94,SSW,203,8.9,11.6,60,0.00,,,0.00,WUHU216HW,2013-06-16 18:57:00,
2013-06-16 14:02:00,91.1,75.2,29.94,SSW,203,6.9,11.6,60,0.00,,,0.00,WUHU216HW,2013-06-16 19:02:00,
2013-06-16 14:07:00,91.1,74.2,29.94,SSE,158,8.5,10.1,58,0.00,,,0.00,WUHU216HW,2013-06-16 19:07:00,
2013-06-16 14:12:00,91.1,75.2,29.93,SSW,203,8.5,9.8,60,0.00,,,0.00,WUHU216HW,2013-06-16 19:12:00,
2013-06-16 14:17:00,91.4,74.5,29.93,SSW,203,6.3,9.8,58,0.00,,,0.00,WUHU216HW,2013-06-16 19:17:00,
2013-06-16 14:22:00,91.6,74.7,29.93,South,180,10.5,11.4,58,0.00,,,0.00,WUHU216HW,2013-06-16 19:22:00,
2013-06-16 14:27:00,91.6,74.7,29.93,SSE,158,8.5,11.4,58,0.00,,,0.00,WUHU216HW,2013-06-16 19:27:00,
2013-06-16 14:32:00,91.8,73.8,29.93,South,180,6.0,10.5,56,0.00,,,0.00,WUHU216HW,2013-06-16 19:32:00,
2013-06-16 14:37:00,92.2,74.2,29.93,SSW,203,5.8,8.5,56,0.00,,,0.00,WUHU216HW,2013-06-16 19:37:00,
2013-06-16 14:42:00,92.2,73.6,29.93,SSE,158,5.1,8.1,55,0.00,,,0.00,WUHU216HW,2013-06-16 19:42:00,
2013-06-16 14:47:00,92.2,73.1,29.93,SSE,158,7.8,9.2,54,0.00,,,0.00,WUHU216HW,2013-06-16 19:47:00,
2013-06-16 14:52:00,92.2,73.6,29.93,SSE,158,7.4,9.2,55,0.00,,,0.00,WUHU216HW,2013-06-16 19:52:00,
2013-06-16 14:57:00,92.2,73.6,29.92,SSW,203,6.3,9.2,55,0.00,,,0.00,WUHU216HW,2013-06-16 19:57:00,
2013-06-16 15:02:00,92.2,74.2,29.93,SSW,203,5.8,9.2,56,0.00,,,0.00,WUHU216HW,2013-06-16 20:02:00,
2013-06-16 15:07:00,92.2,73.1,29.92,SSW,203,6.9,8.5,54,0.00,,,0.00,WUHU216HW,2013-06-16 20:07:00,
2013-06-16 15:12:00,92.5,73.4,29.92,SSE,158,6.7,9.2,54,0.00,,,0.00,WUHU216HW,2013-06-16 20:12:00,
2013-06-16 15:17:00,92.7,73.0,29.92,South,180,6.3,9.2,53,0.00,,,0.00,WUHU216HW,2013-06-16 20:17:00,
2013-06-16 15:22:00,92.7,73.0,29.92,SW,225,6.3,8.5,53,0.00,,,0.00,WUHU216HW,2013-06-16 20:22:00,
2013-06-16 15:27:00,92.9,73.2,29.92,South,180,7.4,8.9,53,0.00,,,0.00,WUHU216HW,2013-06-16 20:27:00,
2013-06-16 15:32:00,92.9,72.6,29.91,SW,225,6.0,9.2,52,0.00,,,0.00,WUHU216HW,2013-06-16 20:32:00,
2013-06-16 15:37:00,92.9,72.6,29.91,SW,225,4.7,9.2,52,0.00,,,0.00,WUHU216HW,2013-06-16 20:37:00,
2013-06-16 15:42:00,93.1,72.8,29.92,South,180,6.9,10.5,52,0.00,,,0.00,WUHU216HW,2013-06-16 20:42:00,
2013-06-16 15:47:00,92.9,73.2,29.91,SSW,203,4.9,10.5,53,0.00,,,0.00,WUHU216HW,2013-06-16 20:47:00,
2013-06-16 15:52:00,93.2,74.1,29.91,SSE,158,6.3,9.2,54,0.00,,,0.00,WUHU216HW,2013-06-16 20:52:00,
2013-06-16 15:57:00,93.2,72.4,29.91,SSW,203,4.3,8.1,51,0.00,,,0.00,WUHU216HW,2013-06-16 20:57:00,
2013-06-16 16:02:00,93.2,72.4,29.91,South,180,7.2,12.5,51,0.00,,,0.00,WUHU216HW,2013-06-16 21:02:00,
2013-06-16 16:07:00,93.1,72.2,29.91,SSE,158,6.5,12.5,51,0.00,,,0.00,WUHU216HW,2013-06-16 21:07:00,
2013-06-16 16:12:00,93.1,73.4,29.91,South,180,7.8,7.8,53,0.00,,,0.00,WUHU216HW,2013-06-16 21:12:00,
2013-06-16 16:17:00,93.1,73.4,29.91,SSE,158,8.5,11.0,53,0.00,,,0.00,WUHU216HW,2013-06-16 21:17:00,
2013-06-16 16:22:00,92.9,73.7,29.91,SE,135,4.5,11.0,54,0.00,,,0.00,WUHU216HW,2013-06-16 21:22:00,
2013-06-16 16:27:00,93.1,73.4,29.91,SE,135,7.4,9.8,53,0.00,,,0.00,WUHU216HW,2013-06-16 21:27:00,
2013-06-16 16:32:00,92.7,73.0,29.91,SE,135,7.2,12.1,53,0.00,,,0.00,WUHU216HW,2013-06-16 21:32:00,
2013-06-16 16:37:00,92.0,72.9,29.90,SE,135,5.8,12.1,54,0.00,,,0.00,WUHU216HW,2013-06-16 21:37:00,
2013-06-16 16:42:00,92.0,72.9,29.90,ESE,113,7.4,9.2,54,0.00,,,0.00,WUHU216HW,2013-06-16 21:42:00,
2013-06-16 16:47:00,92.3,73.2,29.90,ESE,113,7.8,10.5,54,0.00,,,0.00,WUHU216HW,2013-06-16 21:47:00,
2013-06-16 16:52:00,92.2,72.5,29.90,SSE,158,9.4,10.5,53,0.00,,,0.00,WUHU216HW,2013-06-16 21:52:00,
2013-06-16 16:57:00,92.0,72.9,29.90,SE,135,6.7,10.1,54,0.00,,,0.00,WUHU216HW,2013-06-16 21:57:00,
2013-06-16 17:02:00,92.2,71.4,29.90,SSE,158,9.2,10.3,51,0.00,,,0.00,WUHU216HW,2013-06-16 22:02:00,
2013-06-16 17:07:00,92.3,73.2,29.89,SE,135,3.8,10.3,54,0.00,,,0.00,WUHU216HW,2013-06-16 22:07:00,
2013-06-16 17:12:00,92.5,72.8,29.89,SE,135,7.4,9.4,53,0.00,,,0.00,WUHU216HW,2013-06-16 22:12:00,
2013-06-16 17:17:00,92.5,72.3,29.89,SSE,158,8.5,9.4,52,0.00,,,0.00,WUHU216HW,2013-06-16 22:17:00,
2013-06-16 17:22:00,92.3,71.6,29.89,SSE,158,8.9,10.3,51,0.00,,,0.00,WUHU216HW,2013-06-16 22:22:00,
2013-06-16 17:27:00,92.2,71.9,29.89,SSE,158,8.5,10.3,52,0.00,,,0.00,WUHU216HW,2013-06-16 22:27:00,
2013-06-16 17:32:00,92.2,71.4,29.89,SE,135,7.6,10.3,51,0.00,,,0.00,WUHU216HW,2013-06-16 22:32:00,
2013-06-16 17:37:00,92.2,70.8,29.89,SSE,158,8.3,10.7,50,0.00,,,0.00,WUHU216HW,2013-06-16 22:37:00,
2013-06-16 17:42:00,92.2,71.4,29.89,South,180,5.6,10.7,51,0.00,,,0.00,WUHU216HW,2013-06-16 22:42:00,
2013-06-16 17:47:00,92.2,71.4,29.89,SE,135,8.1,10.5,51,0.00,,,0.00,WUHU216HW,2013-06-16 22:47:00,
2013-06-16 17:52:00,92.2,70.8,29.89,SE,135,6.5,9.4,50,0.00,,,0.00,WUHU216HW,2013-06-16 22:52:00,
2013-06-16 17:57:00,92.0,70.0,29.88,SE,135,5.4,9.4,49,0.00,,,0.00,WUHU216HW,2013-06-16 22:57:00,
2013-06-16 18:02:00,92.0,69.4,29.88,South,180,4.9,11.6,48,0.00,,,0.00,WUHU216HW,2013-06-16 23:02:00,
2013-06-16 18:07:00,92.0,70.0,29.88,SSE,158,7.4,11.6,49,0.00,,,0.00,WUHU216HW,2013-06-16 23:07:00,
2013-06-16 18:12:00,92.0,70.0,29.88,SSW,203,7.2,8.7,49,0.00,,,0.00,WUHU216HW,2013-06-16 23:12:00,
2013-06-16 18:17:00,92.2,70.2,29.87,SSE,158,4.0,9.2,49,0.00,,,0.00,WUHU216HW,2013-06-16 23:17:00,
2013-06-16 18:22:00,92.0,70.0,29.87,SSE,158,5.8,9.2,49,0.00,,,0.00,WUHU216HW,2013-06-16 23:22:00,
2013-06-16 18:27:00,92.0,70.7,29.87,SSE,158,4.7,7.6,50,0.00,,,0.00,WUHU216HW,2013-06-16 23:27:00,
2013-06-16 18:32:00,92.0,70.7,29.87,SSE,158,4.3,8.7,50,0.00,,,0.00,WUHU216HW,2013-06-16 23:32:00,
2013-06-16 18:37:00,91.8,70.6,29.87,SSW,203,4.0,8.7,50,0.00,,,0.00,WUHU216HW,2013-06-16 23:37:00,
2013-06-16 18:42:00,91.6,69.8,29.87,SE,135,6.9,8.7,49,0.00,,,0.00,WUHU216HW,2013-06-16 23:42:00,
2013-06-16 18:47:00,91.4,69.6,29.87,SE,135,4.0,8.7,49,0.00,,,0.00,WUHU216HW,2013-06-16 23:47:00,
2013-06-16 18:52:00,91.3,70.0,29.87,SSE,158,7.4,8.9,50,0.00,,,0.00,WUHU216HW,2013-06-16 23:52:00,
2013-06-16 18:57:00,91.1,69.2,29.87,SSE,158,6.3,8.9,49,0.00,,,0.00,WUHU216HW,2013-06-16 23:57:00,
2013-06-16 19:02:00,91.1,69.8,29.87,SE,135,3.1,7.4,50,0.00,,,0.00,WUHU216HW,2013-06-17 00:02:00,
2013-06-16 19:07:00,90.9,70.3,29.87,SE,135,3.4,6.3,51,0.00,,,0.00,WUHU216HW,2013-06-17 00:07:00,
2013-06-16 19:12:00,90.9,70.3,29.87,SE,135,4.5,5.6,51,0.00,,,0.00,WUHU216HW,2013-06-17 00:12:00,
2013-06-16 19:17:00,90.7,70.7,29.86,SSE,158,2.2,5.6,52,0.00,,,0.00,WUHU216HW,2013-06-17 00:17:00,
2013-06-16 19:22:00,90.5,70.5,29.86,SE,135,3.8,4.7,52,0.00,,,0.00,WUHU216HW,2013-06-17 00:22:00,
2013-06-16 19:27:00,90.4,70.8,29.86,SE,135,2.0,4.7,53,0.00,,,0.00,WUHU216HW,2013-06-17 00:27:00,
2013-06-16 19:32:00,90.2,70.7,29.86,ESE,113,2.0,4.5,53,0.00,,,0.00,WUHU216HW,2013-06-17 00:32:00,
2013-06-16 19:37:00,90.2,71.2,29.86,SE,135,3.1,4.7,54,0.00,,,0.00,WUHU216HW,2013-06-17 00:37:00,
2013-06-16 19:42:00,89.8,70.9,29.87,SE,135,2.5,4.7,54,0.00,,,0.00,WUHU216HW,2013-06-17 00:42:00,
2013-06-16 19:47:00,89.6,70.7,29.87,ESE,113,2.0,4.0,54,0.00,,,0.00,WUHU216HW,2013-06-17 00:47:00,
2013-06-16 19:52:00,89.3,70.9,29.87,ESE,113,1.8,4.0,55,0.00,,,0.00,WUHU216HW,2013-06-17 00:52:00,
2013-06-16 19:57:00,88.9,71.2,29.87,ESE,113,2.0,3.1,56,0.00,,,0.00,WUHU216HW,2013-06-17 00:57:00,
2013-06-16 20:02:00,88.6,70.8,29.87,ESE,113,2.7,3.1,56,0.00,,,0.00,WUHU216HW,2013-06-17 01:02:00,
2013-06-16 20:07:00,88.2,71.1,29.87,ESE,113,2.5,3.1,57,0.00,,,0.00,WUHU216HW,2013-06-17 01:07:00,
2013-06-16 20:12:00,87.8,70.7,29.87,East,90,2.7,3.6,57,0.00,,,0.00,WUHU216HW,2013-06-17 01:12:00,
2013-06-16 20:17:00,87.5,70.9,29.87,ESE,113,2.7,3.6,58,0.00,,,0.00,WUHU216HW,2013-06-17 01:17:00,
2013-06-16 20:22:00,87.3,70.7,29.87,ESE,113,2.2,2.9,58,0.00,,,0.00,WUHU216HW,2013-06-17 01:22:00,
2013-06-16 20:27:00,86.9,70.9,29.87,ESE,113,2.5,2.9,59,0.00,,,0.00,WUHU216HW,2013-06-17 01:27:00,
2013-06-16 20:32:00,86.6,70.6,29.87,ESE,113,1.8,2.5,59,0.00,,,0.00,WUHU216HW,2013-06-17 01:32:00,
2013-06-16 20:37:00,86.4,70.4,29.87,SE,135,1.3,2.5,59,0.00,,,0.00,WUHU216HW,2013-06-17 01:37:00,
2013-06-16 20:42:00,86.4,70.9,29.87,East,90,1.1,1.8,60,0.00,,,0.00,WUHU216HW,2013-06-17 01:42:00,
2013-06-16 20:47:00,85.9,70.4,29.88,East,90,2.5,2.5,60,0.00,,,0.00,WUHU216HW,2013-06-17 01:47:00,
2013-06-16 20:52:00,85.7,70.8,29.88,ESE,113,3.4,3.4,61,0.00,,,0.00,WUHU216HW,2013-06-17 01:52:00,
2013-06-16 20:57:00,85.3,70.4,29.88,East,90,2.9,3.4,61,0.00,,,0.00,WUHU216HW,2013-06-17 01:57:00,
2013-06-16 21:02:00,85.0,70.5,29.88,ESE,113,3.1,3.8,62,0.00,,,0.00,WUHU216HW,2013-06-17 02:02:00,
2013-06-16 21:07:00,84.6,70.2,29.89,ESE,113,3.4,3.8,62,0.00,,,0.00,WUHU216HW,2013-06-17 02:07:00,
2013-06-16 21:12:00,84.6,70.2,29.88,ESE,113,2.9,3.4,62,0.00,,,0.00,WUHU216HW,2013-06-17 02:12:00,
2013-06-16 21:17:00,84.4,70.0,29.89,ESE,113,3.6,4.0,62,0.00,,,0.00,WUHU216HW,2013-06-17 02:17:00,
2013-06-16 21:22:00,84.2,70.3,29.89,ESE,113,3.1,4.0,63,0.00,,,0.00,WUHU216HW,2013-06-17 02:22:00,
2013-06-16 21:27:00,83.9,69.9,29.89,ESE,113,3.8,3.8,63,0.00,,,0.00,WUHU216HW,2013-06-17 02:27:00,
2013-06-16 21:32:00,83.7,69.8,29.89,SE,135,3.1,4.3,63,0.00,,,0.00,WUHU216HW,2013-06-17 02:32:00,
2013-06-16 21:37:00,83.5,69.6,29.89,SE,135,2.5,4.3,63,0.00,,,0.00,WUHU216HW,2013-06-17 02:37:00,
2013-06-16 21:42:00,83.5,70.0,29.89,East,90,2.7,4.3,64,0.00,,,0.00,WUHU216HW,2013-06-17 02:42:00,
2013-06-16 21:47:00,83.2,69.7,29.90,ESE,113,3.1,3.4,64,0.00,,,0.00,WUHU216HW,2013-06-17 02:47:00,
2013-06-16 21:52:00,83.0,69.9,29.90,ESE,113,3.4,3.6,65,0.00,,,0.00,WUHU216HW,2013-06-17 02:52:00,
2013-06-16 21:57:00,82.8,69.8,29.90,East,90,2.9,3.6,65,0.00,,,0.00,WUHU216HW,2013-06-17 02:57:00,
2013-06-16 22:02:00,82.6,69.6,29.90,ESE,113,3.6,3.8,65,0.00,,,0.00,WUHU216HW,2013-06-17 03:02:00,
2013-06-16 22:07:00,82.4,68.9,29.91,East,90,3.6,3.8,64,0.00,,,0.00,WUHU216HW,2013-06-17 03:07:00,
2013-06-16 22:13:00,82.4,69.4,29.91,East,90,3.8,4.0,65,0.00,,,0.00,WUHU216HW,2013-06-17 03:13:00,
2013-06-16 22:17:00,82.3,69.2,29.91,ESE,113,3.4,4.0,65,0.00,,,0.00,WUHU216HW,2013-06-17 03:17:00,
2013-06-16 22:23:00,82.3,69.2,29.91,ESE,113,4.0,4.3,65,0.00,,,0.00,WUHU216HW,2013-06-17 03:23:00,
2013-06-16 22:27:00,82.3,69.2,29.91,ESE,113,3.6,4.7,65,0.00,,,0.00,WUHU216HW,2013-06-17 03:27:00,
2013-06-16 22:32:00,82.4,69.4,29.91,ESE,113,3.1,4.7,65,0.00,,,0.00,WUHU216HW,2013-06-17 03:32:00,
2013-06-16 22:37:00,82.4,69.4,29.91,SE,135,3.1,4.3,65,0.00,,,0.00,WUHU216HW,2013-06-17 03:37:00,
2013-06-16 22:43:00,82.4,69.4,29.91,ESE,113,2.9,6.3,65,0.00,,,0.00,WUHU216HW,2013-06-17 03:43:00,
2013-06-16 22:48:00,82.3,69.2,29.92,East,90,2.9,6.3,65,0.00,,,0.00,WUHU216HW,2013-06-17 03:48:00,
2013-06-16 22:53:00,82.1,69.0,29.92,ESE,113,3.1,4.7,65,0.00,,,0.00,WUHU216HW,2013-06-17 03:53:00,
2013-06-16 22:58:00,82.1,69.5,29.92,ESE,113,3.1,4.5,66,0.00,,,0.00,WUHU216HW,2013-06-17 03:58:00,
2013-06-16 23:01:00,81.9,69.4,29.92,ESE,113,3.4,4.5,66,0.00,,,0.00,WUHU216HW,2013-06-17 04:01:00,
2013-06-16 23:06:00,81.7,69.2,29.93,ESE,113,3.4,4.0,66,0.00,,,0.00,WUHU216HW,2013-06-17 04:06:00,
2013-06-16 23:11:00,81.9,69.4,29.93,SE,135,3.4,4.5,66,0.00,,,0.00,WUHU216HW,2013-06-17 04:11:00,
2013-06-16 23:16:00,81.9,69.4,29.93,ESE,113,2.7,4.5,66,0.00,,,0.00,WUHU216HW,2013-06-17 04:16:00,
2013-06-16 23:21:00,81.9,69.4,29.93,ESE,113,4.0,4.5,66,0.00,,,0.00,WUHU216HW,2013-06-17 04:21:00,
2013-06-16 23:26:00,81.9,69.4,29.93,SE,135,3.4,5.4,66,0.00,,,0.00,WUHU216HW,2013-06-17 04:26:00,
2013-06-16 23:31:00,81.7,69.2,29.93,ESE,113,4.7,5.4,66,0.00,,,0.00,WUHU216HW,2013-06-17 04:31:00,
2013-06-16 23:36:00,81.7,69.2,29.93,ESE,113,3.1,4.7,66,0.00,,,0.00,WUHU216HW,2013-06-17 04:36:00,
2013-06-16 23:41:00,81.5,69.0,29.93,East,90,3.4,4.0,66,0.00,,,0.00,WUHU216HW,2013-06-17 04:41:00,
2013-06-16 23:46:00,81.5,69.0,29.93,ESE,113,3.1,4.5,66,0.00,,,0.00,WUHU216HW,2013-06-17 04:46:00,
2013-06-16 23:51:00,81.4,68.9,29.93,ESE,113,4.3,4.9,66,0.00,,,0.00,WUHU216HW,2013-06-17 04:51:00,
2013-06-16 23:56:00,81.4,68.9,29.93,SE,135,4.3,4.9,66,0.00,,,0.00,WUHU216HW,2013-06-17 04:56:00,